When you browse on this site, cookies collect data to enhance your experience and personalize the content and advertising you see.
Visit our Privacy Policy to learn more. By continuing to use the site, you agree to this use of cookies and data.
  • In Sweden
  • List of Countries
  • For 7 days
  • Water Temperature
  • Weather Map
  • Weather Widgets
  • user-avatar
    Login

    Hourly Weather Delhi

    Today, 18 January, Saturday

    Time Temperature Precipitation Wind Pressure Humidity
    00:00 +14°C° 0 mm 1 mps 743 mmHg 82%
    01:00 +14°C° 0 mm 1 mps 743 mmHg 82%
    02:00 +14°C° 0 mm 1 mps 743 mmHg 82%
    03:00 +12°C° 0 mm 0 mps 743 mmHg 83%
    04:00 +12°C° 0 mm 0 mps 743 mmHg 84%
    05:00 +12°C° 0 mm 0 mps 743 mmHg 87%
    06:00 +12°C° 0 mm 0 mps 743 mmHg 85%
    07:00 +13°C° 0 mm 1 mps 744 mmHg 84%
    08:00 +14°C° 0 mm 1 mps 744 mmHg 83%
    09:00 +15°C° 0 mm 1 mps 744 mmHg 75%
    10:00 +18°C° 0 mm 1 mps 744 mmHg 67%
    11:00 +19°C° 0 mm 1 mps 745 mmHg 55%
    12:00 +20°C° 0 mm 1 mps 744 mmHg 52%
    13:00 +20°C° 0 mm 1 mps 743 mmHg 48%
    14:00 +20°C° 0 mm 2 mps 743 mmHg 44%
    15:00 +19°C° 0 mm 2 mps 742 mmHg 46%
    16:00 +19°C° 0 mm 2 mps 742 mmHg 47%
    17:00 +18°C° 0 mm 2 mps 742 mmHg 51%
    18:00 +17°C° 0 mm 2 mps 743 mmHg 53%
    19:00 +16°C° 0 mm 2 mps 743 mmHg 55%
    20:00 +15°C° 0 mm 2 mps 743 mmHg 56%
    21:00 +15°C° 0 mm 2 mps 744 mmHg 57%
    22:00 +14°C° 0 mm 2 mps 744 mmHg 58%
    23:00 +14°C° 0 mm 2 mps 744 mmHg 58%

    Tomorrow, 19 January, Sunday

    Time Temperature Precipitation Wind Pressure Humidity
    00:00 +13°C° 0 mm 2 mps 744 mmHg 60%
    01:00 +13°C° 0 mm 1 mps 743 mmHg 61%
    02:00 +13°C° 0 mm 1 mps 743 mmHg 63%
    03:00 +12°C° 0 mm 1 mps 743 mmHg 63%
    04:00 +12°C° 0 mm 1 mps 743 mmHg 62%
    05:00 +12°C° 0 mm 2 mps 742 mmHg 61%
    06:00 +12°C° 0 mm 2 mps 743 mmHg 60%
    07:00 +12°C° 0 mm 2 mps 743 mmHg 58%
    08:00 +12°C° 0 mm 2 mps 744 mmHg 57%
    09:00 +14°C° 0 mm 2 mps 744 mmHg 51%
    10:00 +14°C° 0 mm 3 mps 744 mmHg 45%
    11:00 +17°C° 0 mm 3 mps 745 mmHg 40%
    12:00 +18°C° 0 mm 3 mps 744 mmHg 37%
    13:00 +19°C° 0 mm 3 mps 743 mmHg 35%
    14:00 +20°C° 0 mm 3 mps 743 mmHg 32%
    15:00 +19°C° 0 mm 3 mps 743 mmHg 36%
    16:00 +18°C° 0 mm 3 mps 742 mmHg 39%
    17:00 +17°C° 0 mm 2 mps 742 mmHg 42%
    18:00 +16°C° 0 mm 2 mps 742 mmHg 45%
    19:00 +16°C° 0 mm 2 mps 743 mmHg 48%
    20:00 +15°C° 0 mm 2 mps 743 mmHg 50%
    21:00 +14°C° 0 mm 2 mps 743 mmHg 52%
    22:00 +14°C° 0 mm 2 mps 743 mmHg 54%
    23:00 +14°C° 0 mm 2 mps 743 mmHg 56%

    Day after tomorrow, 20 January, Monday

    Time Temperature Precipitation Wind Pressure Humidity
    00:00 +13°C° 0 mm 2 mps 743 mmHg 58%
    01:00 +13°C° 0 mm 2 mps 743 mmHg 59%
    02:00 +12°C° 0 mm 2 mps 742 mmHg 61%
    03:00 +12°C° 0 mm 2 mps 742 mmHg 62%
    04:00 +12°C° 0 mm 2 mps 742 mmHg 63%
    05:00 +12°C° 0 mm 2 mps 741 mmHg 64%
    06:00 +12°C° 0 mm 2 mps 742 mmHg 63%
    07:00 +12°C° 0 mm 2 mps 743 mmHg 62%
    08:00 +12°C° 0 mm 2 mps 743 mmHg 62%
    09:00 +14°C° 0 mm 2 mps 743 mmHg 56%
    10:00 +16°C° 0 mm 2 mps 743 mmHg 51%
    11:00 +18°C° 0 mm 2 mps 743 mmHg 45%
    12:00 +19°C° 0 mm 2 mps 743 mmHg 42%
    13:00 +20°C° 0 mm 2 mps 742 mmHg 38%
    14:00 +22°C° 0 mm 1 mps 742 mmHg 34%
    15:00 +21°C° 0 mm 1 mps 742 mmHg 37%
    16:00 +20°C° 0 mm 1 mps 741 mmHg 39%
    17:00 +19°C° 0 mm 1 mps 741 mmHg 42%
    18:00 +19°C° 0 mm 1 mps 742 mmHg 44%
    19:00 +18°C° 0 mm 1 mps 742 mmHg 46%
    20:00 +15°C° 0 mm 0 mps 742 mmHg 48%
    21:00 +16°C° 0 mm 1 mps 742 mmHg 49%
    22:00 +15°C° 0 mm 1 mps 742 mmHg 51%
    23:00 +15°C° 0 mm 1 mps 742 mmHg 52%

    21 January, Tuesday

    Time Temperature Precipitation Wind Pressure Humidity
    00:00 +15°C° 0 mm 1 mps 742 mmHg 52%
    01:00 +14°C° 0 mm 1 mps 742 mmHg 52%
    02:00 +14°C° 0 mm 1 mps 742 mmHg 53%
    03:00 +14°C° 0 mm 1 mps 742 mmHg 53%
    04:00 +14°C° 0 mm 1 mps 742 mmHg 54%
    05:00 +14°C° 0 mm 1 mps 742 mmHg 54%
    06:00 +14°C° 0 mm 1 mps 742 mmHg 55%
    07:00 +14°C° 0 mm 1 mps 743 mmHg 55%
    08:00 +15°C° 0 mm 1 mps 744 mmHg 56%
    09:00 +16°C° 0 mm 1 mps 744 mmHg 51%
    10:00 +19°C° 0 mm 1 mps 744 mmHg 46%
    11:00 +19°C° 0 mm 2 mps 744 mmHg 42%
    12:00 +20°C° 0 mm 2 mps 744 mmHg 39%
    13:00 +21°C° 0 mm 2 mps 743 mmHg 36%
    14:00 +23°C° 0 mm 2 mps 743 mmHg 34%
    15:00 +21°C° 0 mm 2 mps 742 mmHg 37%
    16:00 +21°C° 0 mm 1 mps 742 mmHg 41%
    17:00 +20°C° 0 mm 1 mps 742 mmHg 44%
    18:00 +20°C° 0 mm 1 mps 743 mmHg 47%
    19:00 +19°C° 0 mm 1 mps 743 mmHg 49%
    20:00 +18°C° 0 mm 1 mps 744 mmHg 51%
    21:00 +16°C° 0 mm 1 mps 744 mmHg 53%
    22:00 +16°C° 0 mm 1 mps 744 mmHg 54%
    23:00 +16°C° 0 mm 1 mps 744 mmHg 55%

    22 January, Wednesday

    Time Temperature Precipitation Wind Pressure Humidity
    00:00 +15°C° 0 mm 2 mps 744 mmHg 56%
    01:00 +15°C° 0 mm 2 mps 744 mmHg 56%
    02:00 +14°C° 0 mm 2 mps 743 mmHg 57%
    03:00 +14°C° 0 mm 2 mps 743 mmHg 58%
    04:00 +14°C° 0 mm 2 mps 743 mmHg 58%
    05:00 +14°C° 0 mm 2 mps 743 mmHg 59%
    06:00 +14°C° 0 mm 2 mps 743 mmHg 59%
    07:00 +14°C° 0 mm 2 mps 744 mmHg 59%
    08:00 +14°C° 0 mm 2 mps 745 mmHg 60%
    09:00 +16°C° 0 mm 2 mps 745 mmHg 54%
    10:00 +18°C° 0 mm 3 mps 745 mmHg 48%
    11:00 +20°C° 0 mm 3 mps 746 mmHg 42%
    12:00 +20°C° 0 mm 4 mps 745 mmHg 40%
    13:00 +21°C° 0 mm 4 mps 744 mmHg 38%
    14:00 +22°C° 0 mm 4 mps 743 mmHg 36%
    15:00 +21°C° 0 mm 4 mps 743 mmHg 39%
    16:00 +20°C° 0 mm 4 mps 743 mmHg 42%
    17:00 +19°C° 0 mm 3 mps 742 mmHg 46%
    18:00 +18°C° 0 mm 3 mps 743 mmHg 48%
    19:00 +17°C° 0 mm 3 mps 743 mmHg 51%
    20:00 +16°C° 0 mm 3 mps 743 mmHg 53%
    21:00 +14°C° 0 mm 4 mps 743 mmHg 55%
    22:00 +14°C° 0 mm 4 mps 743 mmHg 57%
    23:00 +13°C° 0 mm 4 mps 744 mmHg 59%

    23 January, Thursday

    Time Temperature Precipitation Wind Pressure Humidity
    00:00 +13°C° 0 mm 4 mps 743 mmHg 59%
    01:00 +12°C° 0 mm 4 mps 743 mmHg 59%
    02:00 +12°C° 0 mm 4 mps 743 mmHg 59%
    03:00 +12°C° 0 mm 4 mps 742 mmHg 58%
    04:00 +11°C° 0 mm 4 mps 742 mmHg 58%
    05:00 +10°C° 0 mm 5 mps 742 mmHg 57%
    06:00 +10°C° 0 mm 5 mps 742 mmHg 55%
    07:00 +10°C° 0 mm 5 mps 743 mmHg 53%
    08:00 +10°C° 0 mm 5 mps 743 mmHg 50%
    09:00 +13°C° 0 mm 5 mps 743 mmHg 45%
    10:00 +15°C° 0 mm 5 mps 743 mmHg 40%
    11:00 +17°C° 0 mm 5 mps 744 mmHg 35%
    12:00 +19°C° 0 mm 5 mps 743 mmHg 33%
    13:00 +20°C° 0 mm 5 mps 742 mmHg 31%
    14:00 +21°C° 0 mm 6 mps 742 mmHg 29%
    15:00 +20°C° 0 mm 5 mps 741 mmHg 32%
    16:00 +19°C° 0 mm 5 mps 741 mmHg 35%
    17:00 +18°C° 0 mm 4 mps 741 mmHg 38%
    18:00 +17°C° 0 mm 4 mps 741 mmHg 39%
    19:00 +15°C° 0 mm 4 mps 742 mmHg 40%
    20:00 +14°C° 0 mm 4 mps 742 mmHg 41%
    21:00 +14°C° 0 mm 4 mps 742 mmHg 42%
    22:00 +13°C° 0 mm 4 mps 742 mmHg 42%
    23:00 +13°C° 0 mm 4 mps 742 mmHg 43%
    Show more